Location: Azul
(36.7830°S, 59.8500°W)
Time: 16:34:51
(UTC-03:00)

ISS - Pass Details

Date: 28 February 2021
Orbit: 417 x 422 km, 51.6° (Epoch: 26 February)

Event Time Altitude Azimuth Distance (km) Brightness Sun altitude
Rises 21:06:23 0° 219° (SW) 2,405 1.2 -17.6°
Reaches altitude 10° 21:08:56 10° 201° (SSW) 1,534 -0.3 -18.0°
Maximum altitude 21:11:30 19° 152° (SSE) 1,081 -1.7 -18.5°
Enters shadow 21:11:55 19° 142° (SE) 1,094 -1.8 -18.6°
